This is the latest recevied weather packets stored in our database for station/object KD6VLN-14. If no packets are shown the sender has not sent any weather packets the latest 10 day(s).
| Time | Temp. | Humidity | Pressure | Rain* | Wind** | Luminosity | Snow |
|---|---|---|---|---|---|---|---|
| 1777944849 | 13.33° C | 39% | - | 0 mm | - | - | - |
| 1777944549 | 13.33° C | 39% | - | 0 mm | - | - | - |
| 1777944249 | 13.33° C | 38% | - | 0 mm | - | - | - |
| 1777943949 | 13.33° C | 37% | - | 0 mm | - | - | - |
| 1777943649 | 13.33° C | 37% | - | 0 mm | - | - | - |
| 1777943349 | 13.33° C | 41% | - | 0 mm | - | - | - |
| 1777943049 | 13.33° C | 39% | - | 0 mm | - | - | - |
| 1777942749 | 13.33° C | 36% | - | 0 mm | - | - | - |
| 1777942449 | 13.89° C | 39% | - | 0 mm | - | - | - |
| 1777942149 | 14.44° C | 36% | - | 0 mm | - | - | - |
| 1777941849 | 15° C | 38% | - | 0 mm | - | - | - |
| 1777941549 | 15.56° C | 40% | - | 0 mm | - | - | - |
| 1777941249 | 16.11° C | 39% | - | 0 mm | - | - | - |
| 1777940949 | 16.67° C | 38% | - | 0 mm | - | - | - |
| 1777940649 | 17.22° C | 37% | - | 0 mm | - | - | - |
| 1777940349 | 17.78° C | 35% | - | 0 mm | - | - | - |
| 1777940049 | 18.33° C | 33% | - | 0 mm | - | - | - |
| 1777939749 | 19.44° C | 32% | - | 0 mm | - | - | - |
| 1777939449 | 19.44° C | 32% | - | 0 mm | - | - | - |
| 1777939149 | 20° C | 32% | - | 0 mm | - | - | - |
| 1777938849 | 21.11° C | 29% | - | 0 mm | - | - | - |
| 1777938549 | 21.67° C | 27% | - | 0 mm | - | - | - |
| 1777938249 | 22.22° C | 27% | - | 0 mm | - | - | - |
| 1777937949 | 22.22° C | 27% | - | 0 mm | - | - | - |
| 1777937649 | 22.78° C | 27% | - | 0 mm | - | - | - |
* Rain latest hour (hover to see other rain measurements)
** Current wind speed in m/s (hover to see current wind gust speed)